RH
10 10 10 11 10 10 11 12 12 11 11 11 11 10 14 19 24 29 34 33 36 39 30 22 16 19 34 46 58 55 49 34 32 28 26 27 26 27 28 30 32 34 36 39 43 53 40 39 46
12 12 12 12 13 13 17 15 14 13 12 12 12 11 12 16 20 23 26 38 34 30 37 22 15 22 37 48 58 56 46 38 35 30 31 31 34 34 37 37 40 40 39 38 40 37 43 44 50
13 14 13 14 14 14 14 14 15 15 14 14 14 12 11 13 20 15 16 22 23 32 40 24 20 31 42 51 54 56 49 38 36 33 33 36 42 44 42 42 41 39 38 37 35 34 32 36 34
14 14 14 14 14 14 13 12 12 14 15 14 14 13 12 14 14 16 14 22 23 26 28 22 31 43 58 59 56 48 44 42 42 39 40 42 43 43 42 40 37 38 36 33 30 28 26 24 24
13 14 16 17 17 16 15 14 13 15 16 15 14 13 13 15 14 15 14 22 24 25 25 29 40 57 58 45 35 36 47 48 45 44 45 44 44 42 39 34 31 28 27 24 22 20 18 17 16
15 15 16 18 17 16 16 15 14 14 15 16 15 13 13 15 16 14 18 18 20 21 26 31 41 34 35 32 31 29 34 42 47 46 43 40 40 34 30 26 24 22 21 20 19 19 19 18 17
18 16 16 16 16 16 16 17 14 14 15 15 14 14 14 16 17 14 16 16 18 20 22 28 27 23 25 24 22 24 30 36 39 38 35 29 24 25 22 21 23 22 21 21 21 20 17 14 11
18 15 14 14 16 16 18 18 16 15 14 14 14 13 16 22 22 19 14 17 19 22 31 25 20 23 22 21 19 20 24 27 24 29 25 18 20 23 24 22 21 21 21 20 18 16 14 11 10
12 12 13 13 14 17 21 24 17 15 14 15 14 12 14 14 18 15 19 23 22 22 25 32 30 18 18 20 18 16 17 18 18 17 16 23 23 21 21 21 21 18 16 14 13 11 10 10 10
14 14 14 16 17 23 31 24 15 14 14 14 12 10 10 14 17 19 24 25 26 24 23 26 22 18 17 17 16 14 15 16 16 17 18 19 19 18 18 18 18 16 13 11 9 9 9 11 12
19 20 25 26 32 32 32 25 15 14 13 13 10 8 8 12 22 28 28 30 29 30 25 23 17 14 14 15 15 15 16 16 16 16 17 20 23 23 20 17 15 13 11 10 10 9 9 9 9
32 37 38 32 32 31 27 19 15 14 14 12 10 10 15 26 33 35 33 36 34 33 22 20 16 13 13 13 16 18 19 19 24 29 32 35 34 31 28 25 23 22 21 20 20 19 19 18 17
41 46 45 43 43 40 27 14 17 16 15 20 16 22 34 33 38 37 39 45 44 42 27 23 15 12 11 13 18 26 29 33 42 50 48 44 41 36 30 28 27 23 20 20 20 20 20 20 20
46 51 51 54 49 38 14 17 22 14 15 18 17 29 28 29 35 44 48 53 55 42 31 24 16 11 11 18 32 39 47 56 57 55 49 45 40 37 34 31 29 30 31 31 30 29 28 27 26
61 57 60 60 52 36 11 18 16 17 14 16 22 28 30 37 46 53 58 58 49 45 36 25 16 12 14 32 45 58 62 58 56 52 48 46 43 41 38 33 30 30 30 30 30 31 31 30 27
65 62 59 51 31 25 20 22 24 27 22 19 20 29 42 47 50 60 64 57 53 47 40 24 14 12 17 35 48 60 60 58 57 54 49 43 38 37 37 36 36 35 32 29 28 26 24 20 15
68 64 65 46 45 37 32 33 37 40 34 19 19 31 40 41 46 54 59 55 51 43 37 26 16 12 17 27 39 50 52 53 53 50 48 41 42 42 42 39 36 33 30 28 27 25 20 17 17
76 68 67 73 72 62 46 38 44 48 52 35 20 22 32 38 49 53 51 52 50 47 42 35 24 18 19 25 35 54 58 56 53 49 47 44 48 49 48 43 38 34 31 28 24 21 19 17 17
71 72 75 69 64 61 60 63 67 65 73 58 39 24 32 44 43 46 50 50 50 45 39 33 27 21 20 26 50 68 64 58 55 52 48 52 56 54 47 44 42 37 33 27 24 24 22 20 17
71 74 69 69 69 60 56 51 55 61 56 34 31 17 25 39 38 50 53 52 51 44 36 30 26 21 24 43 61 63 65 65 60 55 54 60 59 54 52 52 46 41 34 31 28 24 20 16 13
72 76 75 72 80 68 65 49 48 55 56 28 19 23 29 29 44 53 58 57 51 43 35 30 28 26 39 56 60 62 70 69 61 60 66 70 69 62 59 54 44 38 35 31 26 22 17 13 10
75 92 83 81 76 68 70 40 44 43 37 44 46 31 30 37 55 60 60 56 52 42 37 39 38 39 52 53 58 73 79 68 69 74 75 76 72 68 60 47 42 39 34 28 24 18 14 9 7
70 99 92 89 84 74 62 66 38 48 45 41 42 44 51 86 93 64 61 58 55 47 45 46 47 50 56 61 70 89 87 84 81 82 82 81 74 61 52 47 44 37 31 25 18 14 10 8 8
95 96 97 96 93 64 61 73 26 50 47 54 62 80 92 95 94 94 82 64 61 54 53 58 64 64 63 80 98 99 93 84 84 87 89 75 63 60 53 48 40 33 26 18 14 11 14 15 17
76 97 96 97 88 54 78 68 34 54 53 57 66 82 95 95 94 94 95 96 89 85 85 78 77 92 85 99 99 95 86 80 94 98 81 75 72 62 54 44 35 29 20 13 11 25 37 38 38
69 87 79 100 88 61 84 43 41 43 51 60 72 90 95 93 96 96 96 96 95 95 93 94 94 94 99 98 97 84 90 98 99 83 94 94 75 62 49 38 28 19 12 12 25 52 46 44 21
71 84 77 99 93 94 69 44 53 53 48 51 63 65 89 94 95 96 96 96 97 95 97 98 98 99 100 97 90 98 100 100 100 100 98 83 71 56 42 27 19 10 15 22 49 59 50 41 14
86 90 99 99 94 97 53 59 66 52 47 56 59 61 68 86 93 96 97 98 100 99 98 99 100 99 97 91 100 100 100 100 100 100 86 80 65 48 25 20 12 9 22 32 72 65 52 43 18
99 100 90 96 99 98 72 92 67 52 61 68 66 68 70 72 88 98 97 92 96 92 99 98 98 99 94 100 100 98 96 100 95 89 89 77 58 30 20 12 9 14 32 39 84 47 33 51 35
100 99 100 99 93 98 92 90 69 61 68 71 69 69 65 75 99 99 100 98 99 99 97 96 98 97 100 100 98 100 97 90 93 93 86 64 33 19 12 9 12 32 36 48 94 46 23 34 62
Wind_Speed
15 15 16 15 17 16 16 16 17 16 16 16 17 17 20 21 23 24 23 24 23 21 21 16 14 14 13 13 14 15 18 19 21 23 23 21 21 20 20 20 20 19 18 18 18 18 19 19 19
17 17 16 17 18 19 21 19 18 19 19 18 18 19 22 23 24 23 25 25 24 23 20 13 12 11 12 13 15 16 17 19 22 24 25 24 22 21 20 21 20 20 19 19 18 17 17 17 17
18 19 19 18 19 22 23 22 22 20 21 21 21 20 21 24 26 24 26 25 25 24 19 14 10 10 11 14 16 19 21 21 22 24 25 25 24 23 22 20 20 19 18 17 16 16 15 16 15
21 22 22 22 23 23 24 25 26 24 23 22 23 22 23 26 27 24 25 25 24 21 16 12 10 9 11 15 18 20 20 21 23 24 25 25 25 24 20 19 17 16 16 17 17 17 17 16 16
25 25 26 24 26 27 25 26 27 27 26 24 23 22 24 27 27 25 25 26 23 20 14 11 10 9 13 16 17 19 21 22 24 24 24 24 24 22 20 18 18 18 18 19 20 21 20 20 19
28 27 27 28 30 31 30 27 28 30 30 27 25 22 25 27 26 25 26 26 22 18 16 13 11 11 13 14 17 19 20 22 23 24 23 23 22 21 20 20 20 21 22 23 24 25 25 25 24
31 31 30 27 30 33 33 32 31 31 32 29 26 26 26 25 25 25 24 24 21 18 17 17 16 14 13 16 17 18 19 22 23 23 23 23 22 20 20 22 24 25 26 27 27 26 25 23 22
35 35 33 30 31 35 34 35 35 33 33 30 28 27 24 27 26 25 22 21 23 23 22 21 20 18 17 16 16 17 19 21 21 22 21 19 19 21 24 26 27 28 28 28 28 27 26 27 27
35 35 33 32 32 35 36 39 38 36 34 31 29 28 27 27 27 24 21 21 23 24 27 25 24 22 20 17 17 17 18 19 19 20 20 22 23 25 27 29 29 29 29 29 29 30 30 31 32
35 33 34 33 35 37 39 41 41 40 35 31 30 28 29 27 27 25 24 26 25 24 25 25 25 24 22 20 20 19 18 19 19 20 23 25 27 29 30 31 31 30 31 31 32 33 35 36 37
38 36 37 38 41 43 41 42 42 40 37 31 30 31 31 29 27 27 28 29 26 27 26 26 26 25 24 23 21 20 20 20 20 22 24 26 28 30 30 31 32 33 35 36 37 38 39 42 44
41 42 42 42 43 43 42 43 40 40 37 32 33 32 31 29 29 29 32 30 30 29 27 27 26 25 25 24 23 22 21 21 22 24 26 28 30 32 34 36 37 39 40 42 43 45 47 49 51
42 40 41 43 41 43 44 39 41 40 36 35 34 33 30 32 31 33 33 33 32 30 28 28 26 26 25 25 24 22 23 23 24 26 29 31 34 37 40 42 44 46 48 50 52 54 55 57 57
43 41 41 43 41 41 41 41 43 36 37 35 36 34 33 33 34 36 36 34 32 31 29 30 29 27 27 26 24 23 24 24 26 30 33 36 39 42 43 45 47 49 52 54 54 55 56 58 60
44 46 44 41 41 40 40 44 36 36 35 35 35 34 34 34 35 37 37 34 34 32 30 32 31 30 28 26 26 26 27 29 31 33 36 39 43 47 47 47 49 50 52 54 55 56 58 59 60
45 47 44 42 37 39 40 41 35 36 37 37 37 35 33 32 33 33 34 34 35 31 31 32 32 31 31 30 30 31 31 33 35 38 41 44 47 48 50 50 50 51 53 55 56 57 59 60 63
44 42 43 41 39 43 42 43 40 39 40 40 39 37 34 32 34 34 35 35 33 32 32 33 34 33 33 35 34 34 36 38 39 41 45 48 48 50 51 51 53 55 57 60 62 63 64 66 69
39 43 42 43 42 44 48 50 50 47 46 43 42 41 37 34 33 34 36 34 31 32 33 35 35 34 35 36 37 36 37 39 42 45 47 48 50 52 54 56 57 60 62 63 65 67 69 70 68
42 42 41 36 35 36 42 50 49 50 50 46 43 41 38 35 36 35 35 33 34 32 34 35 35 36 38 38 39 40 40 43 46 47 48 50 53 55 57 58 61 64 66 68 68 68 66 65 65
43 43 40 37 32 38 38 41 43 47 42 40 41 43 39 39 34 34 32 34 36 36 35 36 37 37 38 40 42 42 44 46 48 48 50 53 56 59 60 62 64 66 67 66 66 65 63 65 68
45 44 42 41 37 40 42 43 42 41 47 40 41 40 40 39 36 34 33 34 35 35 37 38 37 38 40 43 44 45 47 49 51 52 53 55 58 60 62 63 65 65 64 63 62 61 61 64 67
46 46 47 47 48 45 43 48 45 45 42 41 41 42 38 36 37 36 35 33 32 34 38 39 40 40 43 47 47 48 51 51 54 55 54 58 59 60 61 63 63 61 60 59 60 60 63 65 63
44 47 53 50 50 49 44 52 45 46 48 38 37 37 37 38 38 35 34 35 35 38 39 40 41 43 48 50 50 51 52 55 56 55 56 58 59 59 60 61 58 56 56 58 58 61 61 58 57
53 52 53 53 53 54 48 48 42 47 48 41 40 41 41 42 39 38 36 37 37 38 37 39 43 46 53 51 49 52 55 57 54 54 55 55 56 58 59 56 54 54 55 56 57 55 51 51 50
59 63 63 62 62 57 53 52 43 47 44 42 39 38 39 39 36 35 36 37 38 38 40 45 50 54 50 46 50 54 55 52 51 51 52 54 58 58 53 52 52 54 54 52 48 44 44 44 45
52 52 54 54 54 54 53 54 50 47 45 42 40 37 38 36 35 35 38 42 42 45 49 51 52 47 45 48 52 52 50 47 48 50 53 54 57 51 50 50 51 50 48 45 40 38 37 39 41
47 51 45 45 47 50 53 52 50 49 49 46 40 38 35 35 34 35 34 37 41 46 48 47 45 46 48 49 50 45 44 47 48 51 55 56 50 48 48 48 47 44 42 40 37 34 31 33 36
45 40 38 42 48 51 50 53 54 50 49 47 44 40 37 34 36 36 35 35 35 39 41 45 46 46 48 48 41 41 44 48 52 51 53 48 46 46 45 45 43 42 40 37 34 31 29 31 32
42 43 43 45 48 48 49 49 55 55 51 51 47 46 44 40 37 38 40 40 42 44 43 42 43 46 46 40 39 41 48 53 50 50 45 43 44 44 43 40 40 40 38 35 31 27 26 28 30
39 42 42 44 43 46 48 52 54 57 58 54 51 50 47 44 43 42 40 40 38 39 39 38 42 45 41 36 42 49 46 47 44 41 40 42 42 40 39 39 39 38 34 32 29 26 25 26 29
Wind_Direction
291 292 292 293 292 294 293 297 300 297 294 296 292 282 278 278 279 285 290 293 300 306 312 323 304 318 321 313 299 295 294 299 300 300 298 299 299 299 298 296 295 294 291 291 292 294 288 288 290
287 287 291 293 293 294 294 298 294 294 293 288 282 278 278 281 283 287 296 298 301 306 311 306 299 312 310 303 288 287 288 290 295 296 297 299 299 296 295 295 295 292 294 295 295 293 291 291 290
285 285 288 292 293 291 290 293 289 287 287 287 285 281 285 287 283 290 297 297 303 308 301 290 295 296 299 296 291 286 282 284 288 289 292 295 298 297 297 295 293 293 294 294 296 298 299 295 291
287 286 286 291 290 288 289 293 290 287 284 284 284 283 283 281 285 292 296 297 305 302 287 280 280 278 280 284 283 282 283 287 289 291 290 290 291 290 289 289 287 288 290 292 292 296 295 293 293
287 285 287 286 284 285 286 289 288 284 283 282 282 280 279 279 285 291 293 296 298 295 295 269 272 273 277 287 294 293 291 289 289 288 285 285 285 286 287 288 286 286 288 288 291 292 290 290 288
280 281 281 285 287 288 287 287 285 285 281 281 281 278 273 277 282 288 289 292 293 295 292 283 283 281 281 284 284 286 288 288 284 282 281 281 280 280 280 282 286 287 289 289 289 290 293 294 292
279 280 277 278 279 283 286 287 284 282 282 281 281 276 272 275 277 280 284 285 290 295 298 295 289 283 277 277 281 285 282 279 279 278 277 276 276 271 273 280 285 289 290 291 293 293 292 291 291
278 279 279 276 274 276 285 285 283 279 278 280 279 277 270 265 272 274 274 281 288 291 295 296 293 284 277 275 281 283 283 280 278 276 275 273 275 278 283 289 292 291 290 290 290 289 289 290 292
276 276 276 273 272 273 282 285 280 277 276 278 277 269 263 263 266 270 271 279 284 286 287 289 284 276 274 276 277 279 278 280 282 277 269 271 278 285 290 291 292 291 290 289 287 286 286 287 289
274 275 276 273 271 276 283 279 276 276 274 274 272 263 259 257 263 267 269 273 278 279 278 280 276 272 273 273 274 276 277 277 275 273 274 279 284 288 291 293 292 290 287 286 284 282 282 282 284
277 275 275 272 272 275 278 275 273 273 274 275 267 261 259 257 263 268 270 271 272 271 269 269 267 264 264 266 272 274 273 274 279 282 285 288 291 293 294 294 294 294 293 291 288 285 283 282 282
274 278 276 273 274 274 273 270 271 271 271 270 267 263 259 260 263 269 273 272 269 270 268 262 261 259 257 262 265 268 276 281 284 287 291 293 294 295 296 297 297 299 298 296 294 292 290 289 288
274 277 276 273 273 273 271 268 270 270 268 270 267 259 258 261 266 270 272 271 269 271 268 262 260 257 257 260 265 273 279 282 286 290 292 296 297 296 296 296 297 296 294 292 291 290 290 289 288
277 275 275 276 274 271 268 266 267 266 265 265 262 261 263 265 269 269 267 268 269 267 266 263 261 260 261 264 269 274 276 280 286 290 293 295 295 294 293 293 292 292 292 291 290 289 288 288 287
275 274 274 276 268 266 262 264 265 265 264 260 258 258 265 269 270 266 265 267 267 267 264 262 260 262 264 267 270 272 276 281 286 290 292 294 295 294 294 293 293 293 293 293 292 292 291 291 291
269 272 275 268 262 261 258 260 264 266 264 259 257 258 265 271 272 270 267 266 265 265 265 261 259 259 263 265 269 274 279 284 288 293 297 298 296 297 297 297 298 297 297 297 297 297 297 297 296
270 271 269 260 259 260 255 258 263 269 268 261 260 260 266 272 269 267 265 264 265 264 262 261 261 262 262 265 269 274 278 283 291 296 298 297 298 298 299 301 302 301 302 303 301 299 296 292 292
265 266 267 267 267 262 262 260 265 265 267 263 259 260 265 271 268 263 265 267 264 262 262 260 261 263 264 266 270 276 282 288 291 293 295 296 299 300 301 302 303 303 302 300 299 297 297 299 303
265 267 266 268 270 268 263 263 260 263 262 263 262 261 261 264 265 266 265 266 264 262 260 261 263 265 267 270 274 279 286 289 290 293 296 298 299 301 302 301 301 301 301 301 302 304 305 307 308
264 265 266 265 265 265 262 262 264 264 260 259 256 256 260 264 273 268 263 261 260 259 260 262 263 265 267 270 276 283 286 287 289 292 296 297 298 299 300 299 301 302 305 307 308 311 312 310 309
261 260 260 262 261 260 267 266 267 265 263 259 258 262 260 270 271 266 259 258 257 257 257 259 262 265 267 271 277 283 285 287 292 294 297 297 297 298 300 301 304 307 310 312 313 311 309 310 311
262 257 256 259 262 262 264 271 267 267 270 263 260 260 263 267 271 263 259 257 257 256 257 260 263 264 267 274 279 282 285 290 292 295 297 295 297 300 302 305 308 311 312 312 311 309 309 311 309
257 255 254 256 263 266 262 269 272 270 271 267 269 268 266 262 255 259 256 253 253 253 258 261 263 266 271 273 280 283 286 289 293 296 294 296 298 301 305 308 311 311 311 309 309 310 310 310 308
255 257 257 258 264 265 270 272 269 276 278 271 269 266 265 262 260 248 246 253 253 255 260 263 266 267 270 277 282 281 285 290 294 292 293 296 300 305 308 309 310 310 308 309 311 309 309 309 309
258 261 264 265 265 267 270 270 274 273 272 278 276 275 268 258 252 248 247 246 251 254 258 258 263 267 275 280 277 280 287 291 290 292 294 297 304 307 306 308 308 308 309 310 309 307 308 312 315
259 258 261 264 267 271 266 264 269 270 271 270 274 273 269 266 259 248 238 241 244 247 252 257 260 270 274 272 277 284 288 289 289 291 295 294 304 303 305 307 307 309 311 310 306 305 309 317 320
263 259 263 262 262 261 262 267 264 265 268 272 273 269 264 262 257 256 252 250 247 249 254 261 265 268 269 275 280 284 286 286 286 286 293 301 301 303 304 305 308 311 312 309 303 304 311 320 323
258 260 255 251 253 254 258 260 264 266 269 271 269 266 263 258 258 257 258 257 258 257 259 260 263 267 273 276 280 282 281 280 280 289 298 298 299 301 303 307 311 311 309 304 300 302 310 319 322
250 250 254 252 249 254 255 255 261 264 263 264 265 265 265 264 258 260 261 261 265 261 258 261 266 268 271 274 276 274 275 276 293 293 294 296 299 301 304 308 312 309 306 299 298 298 308 315 322
242 244 249 254 257 255 255 254 255 260 266 263 261 264 267 266 269 264 264 262 252 258 270 270 263 264 271 266 270 269 278 285 288 291 294 296 297 301 306 310 309 306 301 294 294 294 305 312 320